Location: Harmony
(28.2000°N, 81.1500°W)
Time: 00:19:49
(UTC-04:00)

Cosmos 1238 Rocket - Pass Details

Date: 18 December 2017
Orbit: 376 x 1042 km, 82.9° (Epoch: 26 April)

Event Time Altitude Azimuth Distance (km) Brightness Sun altitude
Rises 19:16:07 0° 172° (S) 3,101 6.7 -22.2°
Reaches altitude 10° 19:18:17 10° 167° (SSE) 2,282 6.0 -22.7°
Maximum altitude 19:23:22 55° 90° (E) 1,023 3.7 -23.8°
Enters shadow 19:23:25 55° 89° (E) 1,024 3.7 -23.8°
